AAL1460 KDFW-KLGA

Flight info

Callsign AAL1460
Flight time 3h 16m
Altitude 35000
Route FORCK3 FORCK ELD IZAAC Q30 VLKNN THRSR TWOUP Q22 BURGG Q60 HURTS PROUD2
Aircraft A321/M-SDE3FGHIRWY/LB1

Departure

Time 2026-05-04 14:00
Airport Dallas Fort Worth International Airport (KDFW)

Arrival

Time 2026-05-04 17:16
Airport LaGuardia Airport (KLGA)
Time Latitude Longitude Altitude Speed Heading
2026-05-04 13:33 32.90689 -97.04613 598 ft 0 kts 65°
2026-05-04 13:45 32.90680 -97.04632 598 ft 3 kts 39°
2026-05-04 13:45 32.90667 -97.04640 598 ft 3 kts 333°
2026-05-04 13:46 32.90653 -97.04625 598 ft 3 kts 295°
2026-05-04 13:46 32.90649 -97.04611 598 ft 1 kts 285°
2026-05-04 13:52 32.90649 -97.04613 598 ft 1 kts 285°
2026-05-04 13:52 32.90657 -97.04640 598 ft 6 kts 293°
2026-05-04 13:52 32.90693 -97.04672 599 ft 7 kts 349°
2026-05-04 13:53 32.90744 -97.04668 598 ft 8 kts 14°
2026-05-04 13:53 32.90790 -97.04624 598 ft 9 kts 59°
2026-05-04 13:53 32.90828 -97.04572 598 ft 9 kts
2026-05-04 13:54 32.90956 -97.04593 598 ft 10 kts 360°
2026-05-04 13:54 32.91011 -97.04626 598 ft 10 kts 285°
2026-05-04 13:54 32.91102 -97.04706 599 ft 12 kts 359°
2026-05-04 13:55 32.91195 -97.04707 599 ft 15 kts
2026-05-04 13:55 32.91434 -97.04707 599 ft 17 kts
2026-05-04 13:55 32.91539 -97.04710 599 ft 12 kts 338°
2026-05-04 13:56 32.91565 -97.04789 602 ft 9 kts 272°
2026-05-04 13:56 32.91566 -97.04843 611 ft 4 kts 271°
2026-05-04 13:56 32.91566 -97.04928 611 ft 7 kts 270°
2026-05-04 13:57 32.91566 -97.04968 613 ft 3 kts 269°
2026-05-04 13:57 32.91566 -97.04994 613 ft 4 kts 270°
2026-05-04 13:58 32.91513 -97.05074 622 ft 0 kts 181°
2026-05-04 13:59 32.91474 -97.05074 621 ft 23 kts 180°
2026-05-04 13:59 32.91078 -97.05076 618 ft 89 kts 180°
2026-05-04 13:59 32.89154 -97.05081 824 ft 165 kts 180°
2026-05-04 14:00 32.88016 -97.05045 1434 ft 164 kts 180°
2026-05-04 14:00 32.85726 -97.04919 2584 ft 175 kts 183°
2026-05-04 14:00 32.84431 -97.04876 2743 ft 197 kts 183°
2026-05-04 14:01 32.82979 -97.04837 3009 ft 216 kts 182°
2026-05-04 14:01 32.81420 -97.04793 3376 ft 233 kts 182°
2026-05-04 14:01 32.78064 -97.04395 4571 ft 251 kts 176°
2026-05-04 14:02 32.76301 -97.04076 5164 ft 259 kts 175°
2026-05-04 14:02 32.74500 -97.03739 5755 ft 265 kts 175°
2026-05-04 14:02 32.72693 -97.03154 6334 ft 277 kts 156°
2026-05-04 14:02 32.71121 -97.01768 6886 ft 289 kts 134°
2026-05-04 14:03 32.70074 -96.99696 7431 ft 299 kts 109°
2026-05-04 14:03 32.69534 -96.97290 8029 ft 304 kts 104°
2026-05-04 14:03 32.69046 -96.94838 8628 ft 308 kts 99°
2026-05-04 14:03 32.68913 -96.92291 9242 ft 311 kts 84°
2026-05-04 14:04 32.69285 -96.87102 10294 ft 326 kts 83°
2026-05-04 14:04 32.69478 -96.84330 10416 ft 348 kts 83°
2026-05-04 14:04 32.69684 -96.81385 10544 ft 368 kts 82°
2026-05-04 14:05 32.70824 -96.75235 11139 ft 390 kts 73°
2026-05-04 14:05 32.71277 -96.73117 11495 ft 394 kts 73°
2026-05-04 14:05 32.71955 -96.69941 12042 ft 398 kts 72°
2026-05-04 14:06 32.72637 -96.66737 12610 ft 403 kts 72°
2026-05-04 14:06 32.73327 -96.63488 13185 ft 407 kts 72°
2026-05-04 14:06 32.74019 -96.60218 13740 ft 411 kts 72°
2026-05-04 14:06 32.74721 -96.56906 14243 ft 415 kts 72°
2026-05-04 14:07 32.75430 -96.53564 14738 ft 419 kts 72°
2026-05-04 14:07 32.76144 -96.50194 15243 ft 423 kts 72°
2026-05-04 14:07 32.76864 -96.46792 15749 ft 426 kts 72°
2026-05-04 14:07 32.77589 -96.43361 16252 ft 430 kts 72°
2026-05-04 14:08 32.78314 -96.39937 16724 ft 434 kts 72°
2026-05-04 14:08 32.79064 -96.36393 17236 ft 438 kts 73°
2026-05-04 14:08 32.79743 -96.32892 17700 ft 444 kts 78°
2026-05-04 14:08 32.80146 -96.29184 18186 ft 449 kts 81°
2026-05-04 14:09 32.80911 -96.21763 19053 ft 456 kts 81°
2026-05-04 14:09 32.81295 -96.18056 19466 ft 459 kts 80°
2026-05-04 14:10 32.82082 -96.10485 20306 ft 465 kts 80°
2026-05-04 14:10 32.82481 -96.06612 20715 ft 467 kts 80°
2026-05-04 14:10 32.82873 -96.02810 21110 ft 470 kts 80°
2026-05-04 14:10 32.83269 -95.98939 21506 ft 473 kts 80°
2026-05-04 14:11 32.83666 -95.95049 21905 ft 475 kts 80°
2026-05-04 14:11 32.84470 -95.87152 22670 ft 481 kts 80°
2026-05-04 14:11 32.84865 -95.83248 23042 ft 483 kts 80°
2026-05-04 14:12 32.85270 -95.79216 23422 ft 486 kts 80°
2026-05-04 14:12 32.85669 -95.75226 23764 ft 488 kts 80°
2026-05-04 14:12 32.86477 -95.67164 24363 ft 493 kts 80°
2026-05-04 14:13 32.86885 -95.63099 24655 ft 496 kts 80°
2026-05-04 14:13 32.87292 -95.59014 24945 ft 499 kts 80°
2026-05-04 14:13 32.87699 -95.54907 25233 ft 501 kts 80°
2026-05-04 14:13 32.88110 -95.50778 25515 ft 504 kts 80°
2026-05-04 14:14 32.88520 -95.46625 25794 ft 507 kts 80°
2026-05-04 14:14 32.89339 -95.38247 26331 ft 512 kts 80°
2026-05-04 14:14 32.89750 -95.34029 26592 ft 515 kts 80°
2026-05-04 14:15 32.90570 -95.25528 27112 ft 519 kts 80°
2026-05-04 14:15 32.91387 -95.16943 27641 ft 525 kts 80°
2026-05-04 14:16 32.92202 -95.08277 28180 ft 529 kts 80°
2026-05-04 14:16 32.92615 -95.03913 28445 ft 532 kts 79°
2026-05-04 14:17 32.93444 -94.95173 29176 ft 531 kts 79°
2026-05-04 14:17 32.93860 -94.90804 29527 ft 531 kts 79°
2026-05-04 14:17 32.94679 -94.82059 30200 ft 532 kts 79°
2026-05-04 14:18 32.95081 -94.77673 30479 ft 532 kts 79°
2026-05-04 14:18 32.95877 -94.68912 31040 ft 533 kts 79°
2026-05-04 14:19 32.96680 -94.60134 31605 ft 533 kts 78°
2026-05-04 14:19 32.97078 -94.55757 31880 ft 533 kts 78°
2026-05-04 14:19 32.97476 -94.51366 32175 ft 533 kts 78°
2026-05-04 14:19 32.97873 -94.46980 32456 ft 533 kts 78°
2026-05-04 14:20 32.98268 -94.42597 32735 ft 533 kts 77°
2026-05-04 14:20 32.98663 -94.38213 33019 ft 532 kts 77°
2026-05-04 14:20 32.99054 -94.33831 33304 ft 532 kts 77°
2026-05-04 14:21 32.99975 -94.25113 33855 ft 525 kts 70°
2026-05-04 14:21 33.00715 -94.20862 34111 ft 524 kts 70°
2026-05-04 14:21 33.01461 -94.16614 34362 ft 524 kts 70°
2026-05-04 14:21 33.02211 -94.12365 34588 ft 523 kts 70°
2026-05-04 14:22 33.02963 -94.08128 34814 ft 522 kts 70°
2026-05-04 14:22 33.03713 -94.03900 34999 ft 523 kts 70°
2026-05-04 14:22 33.05198 -93.95412 35043 ft 522 kts 70°
2026-05-04 14:23 33.07396 -93.82697 35047 ft 522 kts 70°
2026-05-04 14:24 33.08858 -93.74215 35049 ft 522 kts 70°
2026-05-04 14:24 33.10320 -93.65735 35053 ft 522 kts 71°
2026-05-04 14:25 33.11777 -93.57245 35066 ft 523 kts 71°
2026-05-04 14:25 33.13945 -93.44487 35080 ft 523 kts 71°
2026-05-04 14:26 33.15384 -93.35975 35080 ft 523 kts 71°
2026-05-04 14:26 33.16812 -93.27461 35090 ft 523 kts 71°
2026-05-04 14:27 33.18242 -93.18947 35088 ft 523 kts 71°
2026-05-04 14:27 33.19665 -93.10428 35092 ft 523 kts 71°
2026-05-04 14:28 33.21090 -93.01902 35092 ft 524 kts 72°
2026-05-04 14:28 33.22501 -92.93373 35109 ft 524 kts 72°
2026-05-04 14:29 33.25308 -92.76273 35104 ft 524 kts 72°
2026-05-04 14:30 33.26465 -92.67639 35099 ft 529 kts 77°
2026-05-04 14:31 33.27532 -92.54477 35093 ft 531 kts 79°
2026-05-04 14:32 33.29051 -92.36917 35084 ft 531 kts 77°
2026-05-04 14:32 33.29893 -92.28147 35082 ft 531 kts 77°
2026-05-04 14:33 33.30697 -92.19364 35080 ft 532 kts 78°
2026-05-04 14:33 33.31473 -92.10565 35080 ft 533 kts 78°
2026-05-04 14:34 33.32237 -92.01738 35082 ft 534 kts 78°
2026-05-04 14:34 33.33014 -91.92913 35080 ft 534 kts 78°
2026-05-04 14:35 33.33795 -91.84073 35080 ft 535 kts 78°
2026-05-04 14:35 33.34564 -91.75223 35082 ft 536 kts 78°
2026-05-04 14:36 33.35327 -91.66356 35087 ft 537 kts 78°
2026-05-04 14:36 33.36082 -91.57460 35091 ft 537 kts 79°
2026-05-04 14:37 33.36833 -91.48563 35093 ft 538 kts 79°
2026-05-04 14:37 33.37580 -91.39648 35094 ft 538 kts 79°
2026-05-04 14:38 33.38327 -91.30721 35101 ft 539 kts 79°
2026-05-04 14:38 33.39057 -91.21793 35105 ft 539 kts 79°
2026-05-04 14:39 33.39784 -91.12852 35110 ft 540 kts 79°
2026-05-04 14:39 33.40501 -91.03906 35115 ft 540 kts 79°
2026-05-04 14:40 33.41573 -90.90481 35118 ft 540 kts 80°
2026-05-04 14:40 33.42276 -90.81517 35116 ft 541 kts 80°
2026-05-04 14:41 33.42860 -90.74079 35110 ft 541 kts 80°
2026-05-04 14:42 33.44244 -90.56155 35110 ft 540 kts 80°
2026-05-04 14:42 33.44930 -90.47193 35111 ft 540 kts 80°
2026-05-04 14:43 33.45603 -90.38238 35114 ft 540 kts 81°
2026-05-04 14:43 33.46270 -90.29280 35123 ft 540 kts 81°
2026-05-04 14:44 33.46719 -90.20297 35129 ft 541 kts 85°
2026-05-04 14:44 33.46812 -90.11273 35130 ft 542 kts 86°
2026-05-04 14:45 33.46837 -90.02251 35132 ft 541 kts 86°
2026-05-04 14:45 33.46951 -89.93262 35128 ft 540 kts 85°
2026-05-04 14:46 33.47124 -89.84281 35124 ft 539 kts 85°
2026-05-04 14:46 33.47291 -89.75314 35121 ft 538 kts 85°
2026-05-04 14:47 33.47428 -89.66360 35118 ft 537 kts 86°
2026-05-04 14:47 33.47547 -89.57404 35118 ft 537 kts 86°
2026-05-04 14:48 33.47663 -89.48482 35119 ft 536 kts 86°
2026-05-04 14:48 33.47778 -89.39565 35122 ft 535 kts 86°
2026-05-04 14:49 33.47889 -89.30652 35123 ft 534 kts 86°
2026-05-04 14:49 33.47986 -89.21755 35121 ft 534 kts 86°
2026-05-04 14:50 33.48074 -89.12875 35122 ft 533 kts 86°
2026-05-04 14:50 33.48159 -89.03999 35122 ft 532 kts 86°
2026-05-04 14:51 33.48241 -88.95149 35123 ft 532 kts 86°
2026-05-04 14:51 33.48316 -88.86290 35124 ft 531 kts 86°
2026-05-04 14:52 33.48388 -88.77461 35123 ft 530 kts 87°
2026-05-04 14:52 33.48443 -88.68630 35142 ft 529 kts 87°
2026-05-04 14:53 33.48498 -88.59823 35150 ft 528 kts 87°
2026-05-04 14:53 33.48632 -88.51037 35145 ft 525 kts 81°
2026-05-04 14:54 33.49627 -88.42409 35144 ft 522 kts 78°
2026-05-04 14:54 33.50669 -88.33791 35112 ft 522 kts 78°
2026-05-04 14:55 33.51696 -88.25191 35121 ft 521 kts 78°
2026-05-04 14:55 33.52715 -88.16598 35123 ft 520 kts 78°
2026-05-04 14:56 33.53723 -88.08013 35131 ft 520 kts 78°
2026-05-04 14:56 33.54727 -87.99435 35135 ft 519 kts 78°
2026-05-04 14:57 33.55726 -87.90864 35134 ft 519 kts 79°
2026-05-04 14:57 33.56713 -87.82302 35130 ft 518 kts 79°
2026-05-04 14:58 33.57694 -87.73796 35128 ft 518 kts 79°
2026-05-04 14:58 33.58678 -87.65189 35126 ft 517 kts 79°
2026-05-04 14:59 33.59636 -87.56706 35122 ft 517 kts 79°
2026-05-04 15:00 33.61088 -87.43910 35127 ft 516 kts 79°
2026-05-04 15:00 33.62044 -87.35381 35128 ft 515 kts 79°
2026-05-04 15:01 33.63452 -87.22604 35125 ft 514 kts 79°
2026-05-04 15:01 33.64379 -87.14095 35119 ft 514 kts 79°
2026-05-04 15:02 33.65307 -87.05594 35131 ft 514 kts 79°
2026-05-04 15:02 33.66234 -86.97099 35152 ft 513 kts 79°
2026-05-04 15:03 33.66998 -86.88577 35157 ft 515 kts 88°
2026-05-04 15:03 33.66941 -86.79988 35164 ft 515 kts 89°
2026-05-04 15:04 33.66869 -86.71395 35171 ft 515 kts 89°
2026-05-04 15:04 33.66797 -86.62804 35166 ft 514 kts 89°
2026-05-04 15:05 33.66728 -86.54235 35166 ft 513 kts 89°
2026-05-04 15:05 33.66641 -86.45669 35167 ft 513 kts 89°
2026-05-04 15:06 33.66542 -86.37110 35168 ft 513 kts 89°
2026-05-04 15:07 33.66399 -86.24276 35171 ft 512 kts 89°
2026-05-04 15:07 33.66293 -86.15728 35165 ft 512 kts 89°
2026-05-04 15:08 33.66189 -86.07200 35168 ft 511 kts 89°
2026-05-04 15:08 33.66066 -85.98655 35166 ft 511 kts 89°
2026-05-04 15:09 33.65939 -85.90129 35163 ft 511 kts 89°
2026-05-04 15:09 33.65818 -85.81599 35166 ft 511 kts 89°
2026-05-04 15:10 33.65617 -85.68807 35164 ft 511 kts 90°
2026-05-04 15:11 33.65399 -85.56025 35165 ft 511 kts 90°
2026-05-04 15:11 33.65244 -85.47493 35186 ft 510 kts 90°
2026-05-04 15:12 33.65085 -85.38977 35197 ft 510 kts 90°
2026-05-04 15:12 33.64922 -85.30461 35207 ft 510 kts 90°
2026-05-04 15:13 33.64750 -85.21950 35213 ft 510 kts 90°
2026-05-04 15:13 33.64575 -85.13445 35214 ft 510 kts 90°
2026-05-04 15:14 33.64393 -85.04934 35215 ft 510 kts 90°
2026-05-04 15:14 33.64213 -84.96427 35203 ft 510 kts 90°
2026-05-04 15:15 33.64025 -84.87917 35192 ft 510 kts 90°
2026-05-04 15:15 33.63827 -84.79411 35168 ft 510 kts 90°
2026-05-04 15:16 33.63515 -84.66650 35169 ft 509 kts 91°
2026-05-04 15:17 33.63181 -84.53916 35178 ft 509 kts 91°
2026-05-04 15:17 33.63455 -84.45475 35175 ft 505 kts 77°
2026-05-04 15:17 33.64281 -84.41398 35184 ft 501 kts 68°
2026-05-04 15:18 33.67151 -84.33852 35174 ft 495 kts 58°
2026-05-04 15:19 33.71934 -84.22843 35174 ft 496 kts 58°
2026-05-04 15:19 33.76699 -84.11799 35173 ft 496 kts 58°
2026-05-04 15:20 33.79347 -84.05686 35174 ft 496 kts 58°
2026-05-04 15:20 33.82530 -83.98321 35171 ft 496 kts 58°
2026-05-04 15:21 33.85702 -83.90956 35176 ft 496 kts 59°
2026-05-04 15:22 33.90690 -83.80100 35184 ft 490 kts 49°
2026-05-04 15:22 33.96793 -83.70247 35186 ft 489 kts 49°
2026-05-04 15:23 34.00846 -83.63656 35187 ft 489 kts 49°
2026-05-04 15:23 34.04883 -83.57050 35183 ft 489 kts 49°
2026-05-04 15:24 34.12958 -83.43834 35167 ft 489 kts 49°
2026-05-04 15:25 34.16998 -83.37220 35164 ft 489 kts 49°
2026-05-04 15:26 34.23053 -83.27288 35157 ft 490 kts 49°
2026-05-04 15:26 34.29103 -83.17325 35146 ft 490 kts 49°
2026-05-04 15:27 34.35144 -83.07331 35148 ft 490 kts 49°
2026-05-04 15:28 34.41177 -82.97335 35148 ft 490 kts 49°
2026-05-04 15:29 34.47207 -82.87328 35157 ft 490 kts 49°
2026-05-04 15:30 34.61217 -82.63945 35161 ft 489 kts 49°
2026-05-04 15:31 34.67203 -82.53905 35164 ft 489 kts 49°
2026-05-04 15:32 34.77158 -82.37161 35172 ft 489 kts 49°
2026-05-04 15:34 34.87086 -82.20373 35160 ft 489 kts 49°
2026-05-04 15:34 34.93030 -82.10279 35161 ft 489 kts 49°
2026-05-04 15:35 34.98970 -82.00163 35160 ft 489 kts 49°
2026-05-04 15:36 35.04881 -81.90005 35150 ft 490 kts 51°
2026-05-04 15:36 35.08629 -81.83023 35143 ft 492 kts 52°
2026-05-04 15:37 35.12286 -81.75937 35153 ft 493 kts 52°
2026-05-04 15:37 35.15975 -81.68880 35165 ft 492 kts 52°
2026-05-04 15:38 35.19701 -81.61866 35170 ft 492 kts 51°
2026-05-04 15:38 35.23441 -81.54846 35170 ft 492 kts 52°
2026-05-04 15:39 35.27161 -81.47814 35161 ft 492 kts 52°
2026-05-04 15:40 35.32723 -81.37237 35137 ft 493 kts 52°
2026-05-04 15:40 35.36428 -81.30171 35151 ft 493 kts 52°
2026-05-04 15:41 35.40120 -81.23097 35154 ft 493 kts 52°
2026-05-04 15:41 35.43814 -81.16005 35157 ft 493 kts 52°
2026-05-04 15:42 35.47516 -81.08918 35158 ft 493 kts 52°
2026-05-04 15:42 35.51219 -81.01826 35160 ft 494 kts 52°
2026-05-04 15:43 35.54915 -80.94710 35159 ft 494 kts 52°
2026-05-04 15:43 35.58612 -80.87581 35160 ft 494 kts 52°
2026-05-04 15:44 35.62299 -80.80452 35157 ft 495 kts 52°
2026-05-04 15:44 35.65981 -80.73304 35155 ft 495 kts 52°
2026-05-04 15:45 35.69662 -80.66149 35158 ft 495 kts 52°
2026-05-04 15:45 35.73342 -80.58992 35160 ft 495 kts 52°
2026-05-04 15:46 35.77019 -80.51838 35154 ft 495 kts 52°
2026-05-04 15:46 35.80697 -80.44662 35152 ft 495 kts 52°
2026-05-04 15:47 35.84361 -80.37482 35155 ft 495 kts 52°
2026-05-04 15:47 35.88028 -80.30294 35155 ft 495 kts 52°
2026-05-04 15:48 35.91689 -80.23107 35148 ft 495 kts 52°
2026-05-04 15:48 35.97177 -80.12296 35123 ft 495 kts 52°
2026-05-04 15:49 36.00916 -80.05148 35133 ft 495 kts 51°
2026-05-04 15:49 36.04682 -79.98026 35133 ft 496 kts 51°
2026-05-04 15:50 36.08439 -79.90874 35137 ft 496 kts 51°
2026-05-04 15:50 36.12274 -79.83791 35139 ft 495 kts 49°
2026-05-04 15:51 36.16277 -79.76874 35133 ft 494 kts 47°
2026-05-04 15:51 36.20290 -79.69960 35124 ft 495 kts 48°
2026-05-04 15:52 36.24252 -79.62987 35125 ft 495 kts 48°
2026-05-04 15:52 36.28191 -79.55984 35122 ft 495 kts 49°
2026-05-04 15:53 36.32123 -79.48976 35118 ft 495 kts 48°
2026-05-04 15:53 36.36069 -79.41975 35120 ft 495 kts 48°
2026-05-04 15:54 36.40009 -79.34977 35121 ft 494 kts 48°
2026-05-04 15:54 36.43933 -79.27967 35126 ft 494 kts 49°
2026-05-04 15:55 36.47851 -79.20953 35126 ft 494 kts 49°
2026-05-04 15:55 36.51774 -79.13935 35122 ft 494 kts 49°
2026-05-04 15:56 36.55691 -79.06910 35118 ft 494 kts 49°
2026-05-04 15:56 36.59594 -78.99879 35111 ft 494 kts 49°
2026-05-04 15:57 36.63481 -78.92829 35109 ft 494 kts 49°
2026-05-04 15:57 36.66702 -78.86949 35110 ft 494 kts 49°
2026-05-04 15:58 36.70570 -78.79869 35115 ft 495 kts 51°
2026-05-04 15:58 36.73913 -78.72234 35123 ft 499 kts 57°
2026-05-04 15:59 36.77127 -78.64559 35114 ft 499 kts 57°
2026-05-04 15:59 36.80334 -78.56888 35118 ft 498 kts 57°
2026-05-04 16:00 36.83541 -78.49221 35120 ft 498 kts 57°
2026-05-04 16:00 36.86738 -78.41563 35118 ft 497 kts 57°
2026-05-04 16:01 36.89922 -78.33896 35115 ft 497 kts 57°
2026-05-04 16:01 36.93100 -78.26231 35108 ft 496 kts 57°
2026-05-04 16:02 36.96275 -78.18561 35105 ft 496 kts 57°
2026-05-04 16:03 37.01015 -78.07072 35096 ft 495 kts 57°
2026-05-04 16:03 37.04151 -77.99437 35066 ft 493 kts 58°
2026-05-04 16:04 37.07258 -77.91856 35071 ft 492 kts 58°
2026-05-04 16:04 37.11933 -77.80423 35065 ft 491 kts 58°
2026-05-04 16:05 37.15049 -77.72797 35078 ft 491 kts 58°
2026-05-04 16:06 37.19711 -77.61335 35092 ft 492 kts 58°
2026-05-04 16:07 37.25908 -77.46025 35098 ft 492 kts 58°
2026-05-04 16:08 37.32100 -77.30694 35085 ft 492 kts 59°
2026-05-04 16:09 37.39805 -77.11491 35086 ft 493 kts 59°
2026-05-04 16:10 37.46730 -76.96747 35099 ft 480 kts 40°
2026-05-04 16:11 37.54750 -76.89820 35103 ft 462 kts 21°
2026-05-04 16:11 37.57594 -76.87938 35100 ft 463 kts 21°
2026-05-04 16:12 37.74691 -76.76522 35086 ft 464 kts 21°
2026-05-04 16:13 37.86110 -76.68867 35085 ft 465 kts 21°
2026-05-04 16:14 37.97629 -76.61469 35073 ft 464 kts 19°
2026-05-04 16:16 38.12102 -76.52347 35089 ft 465 kts 20°
2026-05-04 16:17 38.26571 -76.43085 35081 ft 466 kts 20°
2026-05-04 16:18 38.34715 -76.36074 35078 ft 476 kts 31°
2026-05-04 16:18 38.37338 -76.33504 35076 ft 476 kts 31°
2026-05-04 16:19 38.50467 -76.20626 35071 ft 476 kts 31°
2026-05-04 16:20 38.63596 -76.07728 35068 ft 476 kts 31°
2026-05-04 16:21 38.71606 -76.00208 33474 ft 475 kts 29°
2026-05-04 16:22 38.72607 -75.99288 33189 ft 475 kts 29°
2026-05-04 16:22 38.74800 -75.97273 32625 ft 476 kts 30°
2026-05-04 16:23 38.82841 -75.89785 30473 ft 477 kts 31°
2026-05-04 16:24 38.93389 -75.79829 27227 ft 459 kts 31°
2026-05-04 16:25 38.98416 -75.75072 26294 ft 442 kts 31°
2026-05-04 16:26 39.08183 -75.65858 25297 ft 432 kts 31°
2026-05-04 16:26 39.15432 -75.58984 24659 ft 427 kts 31°
2026-05-04 16:27 39.20193 -75.54440 24335 ft 424 kts 31°
2026-05-04 16:28 39.27329 -75.47786 23845 ft 419 kts 29°
2026-05-04 16:28 39.34507 -75.41516 23117 ft 414 kts 28°
2026-05-04 16:29 39.43970 -75.33142 22083 ft 408 kts 29°
2026-05-04 16:30 39.50959 -75.26878 22034 ft 407 kts 29°
2026-05-04 16:31 39.55568 -75.22647 21060 ft 406 kts 31°
2026-05-04 16:31 39.62315 -75.16267 19741 ft 396 kts 31°
2026-05-04 16:32 39.68937 -75.10046 18466 ft 388 kts 30°
2026-05-04 16:33 39.73383 -75.06183 17598 ft 382 kts 27°
2026-05-04 16:33 39.77822 -75.02460 16806 ft 377 kts 28°
2026-05-04 16:34 39.81480 -74.99349 16108 ft 373 kts 28°
2026-05-04 16:34 39.83640 -74.97491 15696 ft 371 kts 28°
2026-05-04 16:35 39.90567 -74.91284 14771 ft 346 kts 30°
2026-05-04 16:35 39.95005 -74.85741 14078 ft 319 kts 43°
2026-05-04 16:36 39.96488 -74.83613 13536 ft 315 kts 42°
2026-05-04 16:36 39.99417 -74.79438 12418 ft 308 kts 42°
2026-05-04 16:37 40.02285 -74.75345 11682 ft 303 kts 42°
2026-05-04 16:37 40.03696 -74.73323 11365 ft 300 kts 42°
2026-05-04 16:37 40.06489 -74.69321 10720 ft 296 kts 42°
2026-05-04 16:38 40.09247 -74.65368 10104 ft 292 kts 43°
2026-05-04 16:39 40.13325 -74.59494 9703 ft 289 kts 42°
2026-05-04 16:39 40.16031 -74.55596 9466 ft 290 kts 43°
2026-05-04 16:40 40.18728 -74.51692 9237 ft 289 kts 43°
2026-05-04 16:40 40.21456 -74.47863 8997 ft 286 kts 40°
2026-05-04 16:41 40.24316 -74.44268 8776 ft 284 kts 38°
2026-05-04 16:41 40.28606 -74.38933 8434 ft 283 kts 39°
2026-05-04 16:42 40.32853 -74.33576 8088 ft 282 kts 39°
2026-05-04 16:43 40.35673 -74.30005 7874 ft 281 kts 39°
2026-05-04 16:43 40.38474 -74.26447 7648 ft 280 kts 39°
2026-05-04 16:43 40.39871 -74.24671 7521 ft 280 kts 39°
2026-05-04 16:44 40.45448 -74.17584 7031 ft 279 kts 40°
2026-05-04 16:45 40.48218 -74.14046 7017 ft 277 kts 39°
2026-05-04 16:46 40.52209 -74.09136 7018 ft 254 kts 31°
2026-05-04 16:46 40.55157 -74.06617 7010 ft 252 kts 27°
2026-05-04 16:47 40.58107 -74.04119 7039 ft 252 kts 28°
2026-05-04 16:47 40.61052 -74.01617 7039 ft 252 kts 27°
2026-05-04 16:48 40.64796 -73.96882 7041 ft 265 kts 69°
2026-05-04 16:48 40.65338 -73.94557 7035 ft 264 kts 62°
2026-05-04 16:49 40.67007 -73.90269 6959 ft 262 kts 57°
2026-05-04 16:49 40.68675 -73.86154 6729 ft 249 kts 57°
2026-05-04 16:50 40.70305 -73.82187 6482 ft 247 kts 57°
2026-05-04 16:50 40.71939 -73.78221 6219 ft 249 kts 57°
2026-05-04 16:51 40.74102 -73.74769 5943 ft 238 kts 30°
2026-05-04 16:51 40.75518 -73.73686 5809 ft 234 kts 21°
2026-05-04 16:51 40.78409 -73.71764 5537 ft 235 kts 20°
2026-05-04 16:52 40.81219 -73.69868 5263 ft 221 kts 21°
2026-05-04 16:52 40.82587 -73.68947 5146 ft 220 kts 21°
2026-05-04 16:53 40.85305 -73.67113 4883 ft 219 kts 21°
2026-05-04 16:53 40.89235 -73.64450 4228 ft 207 kts 21°
2026-05-04 16:54 40.90569 -73.63946 3954 ft 193 kts 348°
2026-05-04 16:55 40.92780 -73.69647 3662 ft 186 kts 285°
2026-05-04 16:55 40.93189 -73.72916 3521 ft 182 kts 268°
2026-05-04 16:56 40.91995 -73.75884 3180 ft 193 kts 225°
2026-05-04 16:56 40.88654 -73.78690 2469 ft 191 kts 218°
2026-05-04 16:57 40.87544 -73.79609 2199 ft 186 kts 219°
2026-05-04 16:57 40.85373 -73.81406 1730 ft 169 kts 219°
2026-05-04 16:58 40.82672 -73.83644 1035 ft 146 kts 220°
2026-05-04 16:58 40.81818 -73.84353 823 ft 142 kts 219°
2026-05-04 16:59 40.80196 -73.85696 430 ft 137 kts 217°
2026-05-04 17:00 40.77077 -73.88247 740 ft 145 kts 213°
2026-05-04 17:00 40.73758 -73.90411 2315 ft 208 kts 211°
2026-05-04 17:01 40.70842 -73.92142 2923 ft 253 kts 210°
2026-05-04 17:01 40.67915 -73.94139 3050 ft 227 kts 224°
2026-05-04 17:02 40.65558 -73.96847 3034 ft 225 kts 228°
2026-05-04 17:02 40.63089 -73.99371 3036 ft 232 kts 205°
2026-05-04 17:03 40.61467 -73.99627 3036 ft 242 kts 174°
2026-05-04 17:03 40.59926 -73.98711 3009 ft 248 kts 138°
2026-05-04 17:03 40.58919 -73.94641 3014 ft 239 kts 69°
2026-05-04 17:04 40.60802 -73.91340 3020 ft 227 kts 38°
2026-05-04 17:04 40.63055 -73.88436 3022 ft 227 kts 39°
2026-05-04 17:05 40.65238 -73.85604 3012 ft 226 kts 39°
2026-05-04 17:05 40.67480 -73.82685 3013 ft 227 kts 38°
2026-05-04 17:06 40.69937 -73.80157 3020 ft 223 kts 25°
2026-05-04 17:06 40.71264 -73.79089 3019 ft 223 kts 25°
2026-05-04 17:07 40.73906 -73.76944 2971 ft 223 kts 26°
2026-05-04 17:07 40.74780 -73.76234 2983 ft 223 kts 25°
2026-05-04 17:07 40.76535 -73.74812 2982 ft 219 kts 25°
2026-05-04 17:07 40.77829 -73.73768 3010 ft 217 kts 25°
2026-05-04 17:08 40.79108 -73.72736 2998 ft 215 kts 24°
2026-05-04 17:08 40.81638 -73.70690 2987 ft 214 kts 25°
2026-05-04 17:08 40.82891 -73.69672 2986 ft 209 kts 26°
2026-05-04 17:09 40.84136 -73.68660 2987 ft 206 kts 25°
2026-05-04 17:09 40.85357 -73.67671 2990 ft 206 kts 25°
2026-05-04 17:09 40.86555 -73.66698 2986 ft 205 kts 26°
2026-05-04 17:10 40.89118 -73.65453 2989 ft 191 kts 347°
2026-05-04 17:10 40.91400 -73.69192 2976 ft 179 kts 297°
2026-05-04 17:11 40.91989 -73.70637 2975 ft 179 kts 300°
2026-05-04 17:11 40.92447 -73.72157 2975 ft 180 kts 284°
2026-05-04 17:11 40.92020 -73.75368 2979 ft 183 kts 244°
2026-05-04 17:12 40.91158 -73.76603 2936 ft 187 kts 222°
2026-05-04 17:12 40.89319 -73.78141 2598 ft 186 kts 218°
2026-05-04 17:13 40.86107 -73.80800 1850 ft 177 kts 219°
2026-05-04 17:14 40.83264 -73.83152 1196 ft 147 kts 220°
2026-05-04 17:14 40.82390 -73.83852 982 ft 146 kts 221°
2026-05-04 17:14 40.80769 -73.85246 606 ft 135 kts 216°
2026-05-04 17:15 40.79969 -73.85869 379 ft 135 kts 214°
2026-05-04 17:15 40.78407 -73.87180 42 ft 133 kts 212°
2026-05-04 17:16 40.77415 -73.88003 22 ft 12 kts 212°
2026-05-04 17:16 40.77292 -73.88227 22 ft 8 kts 326°
2026-05-04 17:17 40.77348 -73.88208 20 ft 10 kts 30°
2026-05-04 17:17 40.77566 -73.88027 21 ft 14 kts 32°
2026-05-04 17:18 40.77650 -73.87956 21 ft 15 kts 31°
2026-05-04 17:18 40.77692 -73.87814 24 ft 8 kts 121°
2026-05-04 17:19 40.77627 -73.87679 22 ft 12 kts 122°
2026-05-04 17:19 40.77519 -73.87543 20 ft 12 kts 145°
2026-05-04 17:20 40.77461 -73.87368 20 ft 8 kts 118°
2026-05-04 17:20 40.77473 -73.87287 20 ft 2 kts 41°
2026-05-04 17:20 40.77484 -73.87275 21 ft 1 kts 39°
2026-05-04 17:21 40.77486 -73.87273 20 ft 0 kts 39°